CAPE
373 404 182 125 213 43 60 52 30 9 9 23 4 0 2 4 9 19 17 39 69 61 299 516 1474 1697 1674 2278 2312 2056 2099 2037 2325 2346 2286 1967 1920 1871 1887 1734 1781 1799 1786 1884 1643 1753 1530 1561 1549
469 289 17 6 25 46 29 46 17 12 14 22 14 8 6 16 3 0 37 112 143 129 231 378 1714 2029 1713 1886 2292 2304 1796 1774 1877 2010 2095 2001 1945 1975 1737 1653 1611 1836 1606 1688 1700 1666 1615 1499 1327
459 184 3 19 39 72 75 56 72 33 39 22 0 4 0 32 7 2 12 67 199 241 287 600 1508 2171 1543 1559 2003 2264 1820 1836 1981 2112 2098 1963 1841 1739 1632 1628 1614 1627 1888 1682 1801 1806 1669 1455 1449
315 22 78 158 60 103 72 147 82 84 75 41 13 3 19 9 0 0 22 129 239 348 461 1416 1622 1529 1509 1564 1888 2096 1867 1970 1926 1952 1917 1848 1723 1639 1621 1699 1731 1843 2149 1559 1451 1602 1616 1440 1415
683 331 60 88 97 105 111 197 132 91 40 31 24 1 7 59 35 32 49 119 239 442 744 1149 2048 1943 1677 1663 1942 1990 1964 1848 1747 1806 1909 1770 1632 1630 1649 1699 1817 1833 2056 1785 1552 1395 1446 1505 1443
83 343 121 94 118 105 221 175 152 103 61 37 0 0 79 57 25 34 34 106 301 642 864 1116 1656 1740 1631 1583 1713 1763 1834 1839 1892 1770 1886 1858 1659 1549 1549 1619 1730 1801 1887 1831 1577 1494 1453 1294 1422
14 39 38 90 118 129 215 275 191 78 56 46 30 19 106 61 61 35 68 132 354 759 891 941 1036 1293 1620 1571 1539 1533 1752 1845 1956 1856 1889 1921 1748 1552 1562 1546 1581 1612 1625 1745 1641 1469 1481 1474 1508
6 5 38 95 111 158 329 316 200 72 131 59 58 27 47 83 88 113 108 211 608 1005 927 888 911 1035 1173 1265 1497 1534 1732 1821 2019 2035 1957 1870 1808 1639 1682 1836 1692 1968 1694 1631 1628 1394 1446 1501 1681
250 196 67 45 40 217 438 323 293 192 96 91 80 61 50 200 188 165 164 306 764 1033 944 943 896 919 1175 1203 1193 1668 1678 1862 1992 1937 1949 1966 1646 1365 1658 1751 1916 1751 1737 1703 1407 1486 1264 1681 1808
655 285 115 23 31 259 449 371 267 281 89 154 122 161 161 252 224 234 192 193 379 665 944 1023 980 997 1279 1385 1095 1167 1170 1469 1750 1579 1478 1720 1481 1078 1337 1217 2030 1688 1587 1661 1636 1563 933 1089 1297
766 395 155 0 0 282 483 467 358 283 98 133 125 155 192 253 250 242 173 151 198 516 895 1086 1031 1161 1325 1355 1163 1109 1018 1239 1536 1442 1133 1023 1223 896 756 1184 1226 1243 1274 1414 1284 1220 776 810 895
555 118 149 54 0 178 453 478 358 329 99 102 109 162 282 270 270 305 285 245 301 581 681 1009 1088 1265 1320 1278 1154 1077 983 1035 1205 1094 690 500 465 663 869 942 1060 961 1100 1126 996 1106 766 893 1001
292 59 0 16 23 227 367 490 398 370 257 211 119 195 327 355 308 317 331 286 232 505 723 874 1026 1132 1119 1065 960 900 904 856 849 654 335 400 789 930 1068 1086 1017 882 1006 1307 1263 931 906 993 1064
5 9 2 0 16 116 360 409 433 434 358 174 139 189 260 350 393 361 400 415 259 377 499 697 838 1026 1095 896 730 646 679 585 511 397 178 344 681 870 997 985 1049 1031 1046 1219 1151 1125 989 1093 1259
0 0 0 0 0 99 304 413 479 471 341 232 183 184 208 242 359 394 443 514 472 440 383 568 667 856 1012 778 483 321 438 285 248 297 397 554 632 758 883 1044 976 1006 1186 1073 1169 931 815 468 220
0 0 0 0 0 127 353 324 483 483 388 324 212 169 171 203 324 398 468 530 580 545 489 509 651 598 685 627 174 120 87 117 158 429 488 555 738 765 941 984 1049 956 1101 1169 1070 730 464 298 47
0 0 0 0 0 0 292 80 141 453 414 464 342 270 229 213 275 384 453 557 605 622 562 512 522 532 530 478 225 129 215 327 378 513 639 762 839 801 892 909 845 805 1172 1150 1048 746 509 284 20
0 0 0 0 0 0 12 4 0 300 398 417 427 335 332 299 301 392 503 556 596 613 608 485 510 496 486 444 414 369 339 888 1035 750 898 858 889 924 962 1033 899 939 1061 1128 987 529 230 10 0
0 0 0 0 0 0 0 0 134 247 325 363 434 393 352 354 320 413 493 518 556 577 558 522 523 443 371 424 504 520 541 712 892 561 672 743 822 1009 974 1018 877 1004 1035 958 805 448 366 138 0
0 0 0 0 0 0 0 0 171 241 278 364 447 454 426 410 356 437 516 496 497 482 512 523 500 476 414 314 445 508 478 446 958 626 730 810 785 1048 963 1066 970 840 849 817 796 538 251 44 0
0 0 0 0 0 0 0 0 31 264 234 260 306 427 455 439 460 470 477 495 516 490 403 418 449 353 401 343 321 500 608 608 893 768 743 939 775 1096 1178 1127 1001 849 917 913 575 517 270 0 0
0 0 0 0 0 0 0 0 0 127 250 232 195 222 326 338 419 424 420 410 465 514 461 379 408 342 357 423 511 450 567 685 867 848 623 795 852 788 1180 1091 1026 914 937 968 765 479 145 0 0
0 0 0 0 0 0 0 0 0 13 183 231 244 237 217 211 216 201 184 364 367 458 483 454 453 313 322 468 573 599 507 575 634 539 618 798 930 1074 1146 1126 1068 984 670 680 798 626 232 0 0
0 0 0 0 0 0 0 0 0 0 79 165 185 247 250 211 188 130 60 61 211 323 355 376 443 362 348 381 528 619 570 478 432 456 611 777 902 1007 1027 1056 1080 1031 791 739 802 580 338 0 0
0 0 0 0 0 0 0 0 0 0 0 18 84 108 180 262 245 213 105 49 69 164 254 253 287 362 382 403 438 563 611 508 415 535 603 606 828 762 991 1216 1117 1109 860 654 686 616 195 0 0
0 0 0 0 0 0 0 0 0 0 0 0 3 23 35 61 153 176 181 43 21 91 160 177 222 255 346 418 421 451 531 534 469 595 669 581 557 606 985 1086 1003 1192 893 743 642 391 83 0 0
0 0 0 0 0 0 0 0 0 0 0 0 0 0 0 0 1 47 71 101 31 18 124 145 211 223 269 486 498 489 522 548 553 649 723 677 608 686 998 1072 1058 1218 898 770 516 305 47 0 0
0 0 0 0 0 0 0 0 0 0 0 0 0 0 0 0 0 0 0 7 34 27 59 138 157 232 272 547 616 614 609 591 615 686 745 770 754 693 823 916 1109 1200 912 784 594 425 95 1 0
0 0 0 0 0 0 0 0 0 0 0 0 0 0 0 0 0 0 7 20 34 33 17 71 145 224 251 622 738 759 722 675 666 704 729 784 820 718 695 818 935 1104 1008 842 736 586 174 25 4
0 0 0 0 0 0 0 0 0 0 0 0 0 0 0 0 0 0 0 5 29 35 29 32 81 239 303 487 779 834 804 759 738 738 741 803 888 801 699 914 1037 921 1028 840 882 677 303 111 2
CIN
-79 -26 -60 -49 -14 -59 -51 -36 -28 -62 -10 -12 -41 -5 -0 -29 -38 -17 -43 -10 -17 -10 -9 -4 -0 -0 -0 -0 -0 -0 -0 -0 -0 -0 -0 -0 -0 -0 -0 -0 -0 -0 -0 -0 -0 -0 -0 -0 -5
-94 -94 -176 -23 -33 -43 -42 -41 -53 -45 -58 -57 -98 -102 -87 -75 -15 -0 -32 -3 -10 -21 -14 -17 -0 -0 -0 -0 -0 -0 -2 -1 -6 -2 -0 -0 -0 -0 -0 -0 -1 -0 -0 -0 -0 -0 -0 -2 -3
-104 -157 -16 -19 -20 -30 -30 -36 -59 -28 -56 -56 -53 -134 -0 -75 -0 -5 -21 -20 -6 -12 -18 -8 -0 -0 -0 -0 -0 -0 -0 -6 -3 -0 -0 -0 -0 -0 -3 -0 -0 -0 -0 -0 -0 -0 -0 -1 -5
-149 -281 -165 -108 -22 -80 -27 -41 -54 -96 -84 -46 -136 -40 -108 -127 -0 -0 -90 -22 -6 -7 -16 -0 -0 -0 -0 -0 -0 -0 -1 -2 -1 -1 -2 -2 -2 -4 -3 -0 -0 -1 -1 -0 -0 -0 -0 -5 -9
-63 -164 -137 -50 -16 -83 -26 -52 -29 -92 -114 -80 -124 -0 -37 -115 -94 -127 -73 -51 -10 -5 -4 -1 -0 -0 -0 -0 -0 -0 -0 -2 -11 -7 -3 -5 -11 -5 -1 -0 -0 -0 -0 -0 -1 -7 -11 -14 -17
-184 -170 -201 -38 -13 -29 -77 -70 -72 -102 -152 -157 -0 -0 -114 -86 -174 -114 -91 -87 -15 -1 -1 -0 -0 -0 -0 -0 -0 -0 -3 -3 -5 -6 -4 -9 -12 -4 -1 -0 -0 -0 -0 -0 -4 -12 -24 -33 -28
-161 -242 -199 -48 -17 -44 -82 -84 -80 -128 -211 -187 -201 -190 -111 -150 -151 -151 -137 -77 -11 -4 -3 -1 -0 -1 -0 -0 -2 -7 -5 -3 -3 -7 -8 -10 -9 -8 -3 -3 -2 -1 -4 -6 -11 -23 -36 -36 -32
-59 -137 -90 -218 -29 -78 -93 -77 -81 -215 -191 -299 -242 -252 -168 -202 -196 -126 -143 -63 -1 -1 -7 -5 -4 -1 -1 -4 -4 -10 -5 -3 -1 -2 -10 -8 -5 -7 -5 -3 -11 -4 -9 -19 -14 -26 -38 -39 -25
-91 -115 -123 -194 -191 -132 -103 -74 -85 -134 -254 -256 -187 -264 -374 -170 -135 -122 -111 -23 -0 -0 -6 -5 -7 -6 -4 -9 -20 -3 -4 -1 -2 -6 -6 -8 -22 -34 -30 -34 -22 -14 -21 -21 -25 -19 -47 -36 -25
-101 -115 -118 -86 -129 -122 -94 -118 -123 -138 -220 -204 -234 -222 -225 -159 -172 -146 -155 -139 -45 -6 -0 -2 -7 -15 -6 -5 -25 -25 -27 -18 -13 -24 -29 -24 -47 -73 -63 -71 -28 -16 -19 -17 -18 -21 -55 -79 -93
-113 -131 -125 -0 -0 -107 -89 -130 -158 -126 -230 -251 -230 -289 -221 -179 -156 -153 -177 -194 -185 -69 -11 -0 -10 -11 -8 -6 -24 -30 -45 -42 -31 -37 -59 -74 -87 -94 -28 -117 -120 -115 -77 -85 -85 -45 -97 -19 -133
-162 -205 -166 -137 -17 -105 -112 -114 -187 -124 -191 -233 -263 -372 -262 -199 -190 -162 -158 -178 -157 -89 -74 -19 -15 -7 -7 -16 -37 -46 -62 -67 -61 -63 -93 -102 -82 -20 -37 -49 -125 -118 -138 -131 -126 -108 -117 -63 -100
-200 -269 -80 -173 -182 -104 -88 -99 -72 -139 -165 -201 -407 -328 -260 -196 -175 -170 -173 -183 -207 -138 -92 -58 -38 -26 -28 -36 -56 -73 -83 -94 -94 -106 -130 -24 -18 -26 -50 -39 -93 -33 -150 -102 -120 -125 -100 -99 -49
-20 -78 -1 -0 -103 -124 -100 -74 -66 -86 -160 -298 -357 -308 -266 -232 -198 -166 -167 -170 -229 -196 -155 -112 -87 -58 -38 -69 -97 -123 -116 -123 -128 -138 -155 -25 -26 -26 -41 -31 -86 -46 -46 -42 -44 -110 -115 -101 -46
-0 -0 -0 -0 -0 -214 -99 -94 -118 -74 -173 -85 -362 -281 -239 -238 -211 -205 -201 -177 -201 -213 -202 -154 -136 -88 -65 -96 -138 -165 -144 -153 -169 -181 -6 -170 -161 -33 -34 -33 -28 -31 -45 -39 -107 -41 -52 -21 -54
-0 -0 -0 -0 -0 -111 -120 -142 -107 -88 -208 -153 -349 -311 -252 -224 -238 -221 -198 -188 -168 -177 -200 -177 -138 -142 -120 -122 -205 -223 -207 -148 -218 -162 -133 -6 -17 -29 -39 -37 -25 -25 -38 -109 -30 -30 -20 -11 -66
-0 -0 -0 -0 -0 -0 -120 -162 -111 -134 -113 -267 -289 -305 -255 -229 -217 -221 -203 -196 -187 -177 -179 -202 -183 -171 -169 -161 -198 -227 -19 -12 -7 -121 -90 -21 -18 -21 -54 -40 -29 -46 -33 -26 -21 -26 -25 -16 -48
-0 -0 -0 -0 -0 -0 -51 -54 -0 -248 -167 -259 -297 -298 -262 -255 -274 -255 -215 -200 -183 -165 -160 -207 -184 -176 -177 -161 -149 -133 -123 -14 -23 -35 -35 -45 -30 -127 -35 -41 -15 -50 -36 -14 -15 -32 -38 -87 -0
-0 -0 -0 -0 -0 -0 -0 -0 -283 -260 -205 -239 -316 -328 -297 -278 -267 -234 -200 -185 -181 -170 -173 -182 -184 -178 -174 -169 -136 -123 -102 -18 -19 -37 -42 -49 -53 -163 -35 -48 -18 -49 -23 -15 -22 -36 -32 -59 -0
-0 -0 -0 -0 -0 -0 -0 -0 -255 -277 -260 -288 -322 -345 -320 -285 -245 -222 -196 -161 -155 -202 -235 -191 -191 -171 -183 -214 -182 -144 -119 -88 -15 -9 -39 -20 -41 -163 -155 -49 -19 -46 -29 -16 -28 -36 -53 -52 -0
-0 -0 -0 -0 -0 -0 -0 -0 -306 -259 -230 -207 -241 -336 -278 -259 -276 -273 -236 -218 -187 -175 -235 -239 -210 -227 -197 -129 -139 -149 -106 -97 -24 -30 -67 -15 -16 -153 -144 -56 -28 -32 -27 -17 -48 -47 -53 -0 -0
-0 -0 -0 -0 -0 -0 -0 -0 -0 -262 -246 -222 -196 -264 -267 -236 -251 -239 -245 -214 -217 -227 -185 -135 -179 -222 -308 -172 -73 -166 -173 -124 -65 -35 -37 -53 -19 -64 -145 -73 -39 -22 -38 -27 -36 -54 -87 -0 -0
-0 -0 -0 -0 -0 -0 -0 -0 -0 -64 -252 -244 -248 -245 -257 -224 -198 -194 -232 -287 -259 -226 -189 -167 -138 -244 -266 -224 -108 -98 -173 -134 -96 -130 -115 -61 -37 -44 -45 -35 -42 -23 -50 -84 -71 -62 -91 -0 -0
-0 -0 -0 -0 -0 -0 -0 -0 -0 -0 -335 -310 -244 -266 -268 -237 -196 -221 -224 -253 -307 -267 -264 -216 -186 -186 -299 -277 -190 -131 -105 -125 -117 -88 -122 -63 -43 -31 -37 -42 -40 -33 -54 -94 -77 -71 -92 -0 -0
-0 -0 -0 -0 -0 -0 -0 -0 -0 -0 -0 -310 -306 -272 -296 -285 -243 -227 -240 -318 -495 -423 -372 -333 -300 -210 -338 -266 -230 -200 -129 -109 -95 -82 -54 -108 -53 -52 -72 -25 -64 -46 -68 -109 -95 -85 -136 -0 -0
-0 -0 -0 -0 -0 -0 -0 -0 -0 -0 -0 -0 -318 -294 -255 -262 -264 -263 -229 -277 -360 -530 -444 -412 -498 -430 -388 -366 -297 -250 -165 -131 -110 -96 -72 -75 -106 -166 -56 -51 -99 -48 -79 -101 -106 -123 -170 -0 -0
-0 -0 -0 -0 -0 -0 -0 -0 -0 -0 -0 -0 -0 -0 -0 -0 -46 -305 -295 -248 -291 -442 -617 -434 -623 -455 -546 -489 -441 -394 -354 -312 -209 -130 -80 -90 -91 -137 -48 -65 -102 -66 -107 -107 -124 -138 -195 -0 -0
-0 -0 -0 -0 -0 -0 -0 -0 -0 -0 -0 -0 -0 -0 -0 -0 -0 -0 -0 -47 -302 -277 -629 -543 -526 -490 -550 -546 -471 -409 -376 -345 -219 -174 -122 -113 -103 -247 -130 -106 -92 -84 -118 -123 -125 -136 -181 -65 -0
-0 -0 -0 -0 -0 -0 -0 -0 -0 -0 -0 -0 -0 -0 -0 -0 -0 -0 -9 -20 -45 -33 -512 -607 -569 -586 -530 -575 -500 -431 -402 -360 -250 -197 -165 -142 -114 -134 -196 -122 -122 -110 -122 -139 -132 -136 -182 -151 -216
-0 -0 -0 -0 -0 -0 -0 -0 -0 -0 -0 -0 -0 -0 -0 -0 -0 -0 -0 -2 -12 -13 -20 -667 -609 -667 -722 -686 -566 -512 -454 -418 -311 -266 -198 -184 -155 -146 -191 -140 -116 -167 -123 -166 -155 -159 -190 -212 -243
Wind_Speed
11 10 9 12 14 nan nan nan nan nan nan nan nan nan nan nan nan nan nan nan nan nan 7 2 5 9 9 8 8 9 9 9 7 7 6 6 7 8 7 8 6 2 3 1 3 3 5 7 9
8 10 nan nan nan nan nan nan nan nan nan nan nan nan nan nan nan nan nan 6 7 6 6 3 6 8 9 8 7 9 9 7 7 6 6 8 8 7 9 9 8 5 3 2 1 0 1 2 3
9 9 nan nan nan nan nan nan nan nan nan nan nan nan nan nan nan nan nan nan 5 7 6 1 9 7 8 8 9 8 6 6 5 6 8 8 8 9 10 9 9 7 5 3 2 1 1 1 1
1 nan nan 9 nan 12 nan 9 nan nan nan nan nan nan nan nan nan nan nan 2 4 4 5 7 10 9 9 9 9 5 5 5 6 9 10 8 9 9 11 12 11 9 6 3 1 2 2 3 3
11 14 nan nan nan 14 16 5 9 nan nan nan nan nan nan nan nan nan nan 2 2 4 3 4 9 9 9 9 6 5 5 7 9 10 10 12 10 9 11 12 11 9 7 6 4 3 3 4 7
nan 26 15 nan 15 13 6 9 5 5 nan nan nan nan nan nan nan nan nan 1 4 2 3 3 9 9 9 9 8 7 8 9 11 11 12 11 10 10 12 14 14 12 11 8 5 5 6 7 10
nan nan nan nan 20 14 10 10 9 nan nan nan nan nan 10 nan nan nan nan 4 4 1 2 4 6 8 12 12 12 12 13 13 13 14 15 14 13 13 15 16 19 17 17 14 11 14 16 13 13
nan nan nan nan 13 14 5 11 11 nan 7 nan nan nan nan nan nan 8 7 7 4 3 3 6 8 9 11 12 16 16 16 15 15 15 16 16 17 19 22 24 24 23 22 20 18 17 18 18 14
6 12 nan nan nan 15 10 7 13 10 nan nan nan nan nan 11 7 9 9 6 3 2 5 7 9 10 10 12 15 17 19 18 19 18 21 21 20 22 23 26 24 21 21 21 17 14 13 16 15
6 12 16 nan nan 18 16 9 9 10 nan 8 2 12 14 12 13 11 12 10 3 3 7 7 9 10 11 12 14 14 16 15 16 17 20 19 20 22 21 25 24 16 18 16 17 14 13 11 14
4 9 11 nan nan 12 14 15 11 12 nan 19 20 21 18 16 14 14 12 9 4 4 8 8 9 10 11 12 12 14 16 17 16 16 18 18 17 19 20 20 20 18 16 14 13 10 12 14 14
8 14 10 nan nan 10 17 12 15 22 nan 22 28 30 23 17 14 9 7 6 2 4 8 9 11 10 11 11 12 13 14 16 16 15 17 15 17 18 19 18 18 17 16 15 13 10 10 12 14
14 nan nan nan nan 14 6 21 17 28 17 22 26 29 23 13 12 6 5 2 4 6 8 10 11 11 10 10 12 13 13 14 14 13 15 14 14 16 16 18 16 15 14 12 11 9 9 9 7
nan nan nan nan nan 12 9 15 10 18 17 25 29 27 23 14 14 7 7 4 6 8 9 9 11 10 10 10 10 12 12 13 14 13 13 13 11 14 16 16 14 13 13 11 10 10 9 8 8
nan nan nan nan nan nan 6 10 21 6 18 28 36 25 20 11 9 6 7 5 8 9 8 10 11 11 10 12 11 10 10 10 13 12 10 11 11 13 16 13 12 11 10 10 10 9 8 7 8
nan nan nan nan nan 6 5 17 22 15 20 28 35 23 20 10 11 8 5 6 7 7 8 8 10 11 11 12 11 11 nan 9 11 11 8 9 12 13 12 9 9 9 9 9 9 7 7 9 nan
nan nan nan nan nan nan 4 nan 18 17 22 26 31 23 18 12 10 7 6 6 7 6 6 6 7 9 11 11 10 10 9 9 11 10 9 11 11 10 8 7 8 10 9 9 8 9 11 11 nan
nan nan nan nan nan nan nan nan nan 19 22 28 25 23 18 14 14 8 7 4 6 5 5 3 4 7 9 10 10 11 11 11 11 9 7 7 6 7 7 8 11 12 11 11 11 10 11 nan nan
nan nan nan nan nan nan nan nan 8 12 12 18 22 22 19 17 12 6 7 5 5 3 4 5 3 5 5 8 9 9 9 8 8 6 4 5 4 7 8 9 12 12 12 11 12 11 12 13 nan
nan nan nan nan nan nan nan nan 7 7 19 20 21 18 18 14 10 8 7 6 5 3 4 7 7 5 5 6 7 7 3 4 4 2 2 1 4 9 11 12 13 12 10 11 11 11 13 nan nan
nan nan nan nan nan nan nan nan nan 1 14 9 10 7 10 12 10 8 8 7 4 6 8 7 8 7 4 4 4 9 11 12 9 5 4 3 6 10 15 17 14 11 10 8 10 14 13 nan nan
nan nan nan nan nan nan nan nan nan 5 3 6 5 3 10 13 8 7 8 7 10 9 5 7 6 6 5 4 1 1 1 1 3 7 7 6 8 11 16 16 13 10 7 9 12 14 11 nan nan
nan nan nan nan nan nan nan nan nan nan 7 3 11 6 12 13 10 7 7 9 6 8 8 6 6 6 5 5 5 3 2 5 9 11 7 7 9 13 18 17 10 8 8 9 11 13 14 nan nan
nan nan nan nan nan nan nan nan nan nan nan 2 13 13 11 13 15 9 nan nan 4 4 2 4 7 6 6 6 7 7 6 8 10 11 9 9 10 13 17 11 9 6 8 11 11 12 15 nan nan
nan nan nan nan nan nan nan nan nan nan nan nan nan 19 15 12 11 11 9 nan nan 6 6 5 7 7 8 8 7 8 9 9 8 8 9 11 12 14 15 12 8 6 10 10 12 15 11 nan nan
nan nan nan nan nan nan nan nan nan nan nan nan nan nan nan nan 8 13 16 nan nan nan 16 15 14 11 13 12 9 9 12 11 10 8 10 11 12 15 16 12 9 7 9 11 14 13 nan nan nan
nan nan nan nan nan nan nan nan nan nan nan nan nan nan nan nan nan nan nan 12 nan nan 17 18 16 12 10 10 10 11 13 13 11 11 11 14 14 14 16 11 9 10 8 11 13 12 nan nan nan
nan nan nan nan nan nan nan nan nan nan nan nan nan nan nan nan nan nan nan nan nan nan nan 11 12 19 15 10 10 11 11 14 16 19 15 16 16 16 16 12 10 12 11 10 10 10 nan nan nan
nan nan nan nan nan nan nan nan nan nan nan nan nan nan nan nan nan nan nan nan nan nan nan nan 11 15 13 10 10 11 11 10 13 15 16 18 19 17 14 14 12 12 11 10 10 10 15 nan nan
nan nan nan nan nan nan nan nan nan nan nan nan nan nan nan nan nan nan nan nan nan nan nan nan nan 13 9 9 10 11 12 14 15 13 13 19 17 19 15 15 13 12 11 12 11 12 14 16 nan
Wind_Direction
352 8 42 110 106 nan nan nan nan nan nan nan nan nan nan nan nan nan nan nan nan nan 119 56 330 309 310 309 328 349 353 348 335 325 323 330 359 14 37 51 63 83 89 42 74 81 72 59 38
18 7 nan nan nan nan nan nan nan nan nan nan nan nan nan nan nan nan nan 120 144 135 140 132 321 312 312 327 5 10 357 340 323 330 357 10 15 26 42 54 77 90 111 101 65 291 319 33 48
349 69 nan nan nan nan nan nan nan nan nan nan nan nan nan nan nan nan nan nan 155 145 156 326 325 332 329 351 18 14 351 322 342 17 30 28 33 40 51 62 72 91 106 127 142 207 264 250 68
120 nan nan 121 nan 102 nan 98 nan nan nan nan nan nan nan nan nan nan nan 125 182 162 158 323 336 331 348 8 21 359 318 341 23 37 39 36 38 44 57 65 77 82 78 81 75 263 279 314 14
85 115 nan nan nan 120 110 64 82 nan nan nan nan nan nan nan nan nan nan 214 234 166 139 6 345 352 5 20 7 337 352 26 47 50 47 44 44 51 56 65 76 82 96 88 72 52 28 28 35
nan 138 133 nan 97 121 114 33 59 154 nan nan nan nan nan nan nan nan nan 297 319 289 135 73 0 11 23 24 19 21 33 53 63 61 59 63 63 68 76 83 85 80 79 89 109 80 65 55 62
nan nan nan nan 84 96 85 79 64 nan nan nan nan nan 164 nan nan nan nan 309 331 221 165 117 98 51 35 33 37 46 52 65 69 68 72 77 79 82 86 91 96 91 88 85 72 74 80 80 72
nan nan nan nan 76 77 19 80 48 nan 108 nan nan nan nan nan nan 289 309 318 307 187 153 125 112 102 91 78 50 58 66 71 71 73 80 86 89 91 93 92 95 94 88 82 74 67 66 71 68
186 148 nan nan nan 66 8 68 71 81 nan nan nan nan nan 318 293 284 298 304 295 171 140 131 115 107 103 89 83 75 76 73 78 87 87 91 100 99 102 101 96 91 81 74 67 60 66 65 62
231 148 108 nan nan 75 20 65 63 85 nan 75 253 262 291 311 308 303 314 327 352 73 111 126 118 114 110 103 101 100 96 100 96 97 99 101 96 98 97 94 97 94 78 81 62 42 51 54 59
196 117 124 nan nan 103 50 37 54 56 nan 45 357 330 320 310 314 307 325 334 355 96 125 118 115 120 110 112 115 113 106 104 106 98 101 103 106 101 98 94 94 94 94 82 79 59 52 56 45
171 113 148 nan nan 152 76 51 32 47 nan 33 359 338 333 343 338 323 343 0 332 120 94 111 111 118 118 130 119 114 111 110 110 105 102 106 100 102 97 92 85 89 86 84 73 66 45 44 52
160 nan nan nan nan 79 113 74 46 54 64 7 2 350 341 354 3 356 25 12 89 119 116 105 112 114 112 126 129 122 113 112 110 108 102 97 90 90 91 83 77 74 70 63 61 63 54 43 51
nan nan nan nan nan 89 71 98 97 67 28 2 357 3 0 3 15 33 49 68 110 122 112 112 101 104 116 110 123 117 121 115 116 111 101 93 82 82 81 77 67 69 65 61 43 36 34 12 24
nan nan nan nan nan nan 107 127 83 79 37 9 359 2 16 19 35 20 75 101 134 131 125 106 95 101 108 112 119 124 114 116 109 103 91 78 74 75 76 63 62 52 45 33 21 24 4 349 355
nan nan nan nan nan 324 298 72 71 34 17 17 5 359 26 41 47 29 62 125 133 141 111 103 103 96 106 116 125 126 nan 117 108 98 93 74 71 63 60 55 45 36 14 5 358 3 343 345 nan
nan nan nan nan nan nan 252 nan 77 17 14 19 11 5 23 51 51 49 73 125 135 128 107 98 94 98 103 111 124 125 119 114 109 116 101 81 63 58 50 30 23 8 359 357 350 12 11 8 nan
nan nan nan nan nan nan nan nan nan 30 13 21 14 17 19 42 40 59 86 130 134 130 112 79 93 112 104 117 119 130 143 137 125 107 97 79 69 34 26 354 2 353 360 3 6 13 5 nan nan
nan nan nan nan nan nan nan nan 134 60 39 35 33 21 26 37 38 59 100 126 148 123 66 52 60 91 124 132 127 133 119 141 136 135 91 59 24 360 354 346 347 344 360 6 0 1 4 355 nan
nan nan nan nan nan nan nan nan 231 21 52 37 16 356 34 42 47 47 65 53 54 69 45 33 38 47 90 116 123 152 167 168 190 192 128 34 341 337 339 342 342 346 352 357 4 2 358 nan nan
nan nan nan nan nan nan nan nan nan 155 188 127 89 21 76 61 40 50 30 47 42 26 25 21 12 8 36 64 177 197 209 213 235 242 260 321 338 336 339 337 333 345 341 6 356 354 351 nan nan
nan nan nan nan nan nan nan nan nan 232 54 125 115 88 84 82 76 68 56 23 46 42 23 17 14 357 1 1 276 356 51 272 258 261 275 311 337 333 332 334 330 340 331 352 356 343 339 nan nan
nan nan nan nan nan nan nan nan nan nan 209 121 115 115 95 85 75 47 56 53 42 38 18 359 349 3 359 344 350 305 251 230 237 248 283 289 308 323 329 338 329 334 330 338 344 335 333 nan nan
nan nan nan nan nan nan nan nan nan nan nan 88 123 97 77 96 89 69 nan nan 98 87 58 2 349 359 359 345 347 324 318 269 255 250 269 290 302 314 339 336 317 319 316 328 343 327 328 nan nan
nan nan nan nan nan nan nan nan nan nan nan nan nan 84 61 49 78 84 52 nan nan 18 11 340 340 352 332 323 323 311 300 292 290 283 281 297 302 307 334 321 289 293 316 326 320 311 331 nan nan
nan nan nan nan nan nan nan nan nan nan nan nan nan nan nan nan 80 59 49 nan nan nan 5 346 337 333 320 309 305 288 292 274 275 283 279 293 302 311 314 305 280 300 311 309 312 319 nan nan nan
nan nan nan nan nan nan nan nan nan nan nan nan nan nan nan nan nan nan nan 44 nan nan 344 357 351 354 335 328 307 306 289 287 277 269 276 283 288 289 297 285 279 299 308 306 321 328 nan nan nan
nan nan nan nan nan nan nan nan nan nan nan nan nan nan nan nan nan nan nan nan nan nan nan 338 353 351 340 344 338 323 304 288 280 278 280 280 277 283 284 265 275 284 290 301 325 322 nan nan nan
nan nan nan nan nan nan nan nan nan nan nan nan nan nan nan nan nan nan nan nan nan nan nan nan 342 340 352 335 338 336 319 306 286 282 280 272 270 276 260 251 269 280 289 302 321 334 334 nan nan
nan nan nan nan nan nan nan nan nan nan nan nan nan nan nan nan nan nan nan nan nan nan nan nan nan 327 349 324 332 345 331 319 322 311 285 273 265 264 248 247 270 278 287 295 326 337 330 343 nan